STARLINK-2045 (47353 NORAD) Tracking and Keplerian Element Data

This shows tracking and keplerian element data for the satellite.

Feedback or suggestion? Click here.




ElementValue
Catalog47353
NameSTARLINK-2045
Epoch Orbit177
Epoch Day101.91668981
Epoch Year2021
RAAN171.908
Inclination53.0535
Eccentricity0.0004239
Argument of Perigee9.259
Mean Anonmoly161.2784
Mean Motion15.62803542
Decay Rate-0.00015956
L11 47353U 21005E 21101.91668981 -.00015956 00000-0 -16831-3 0 9993
L22 47353 53.0535 171.9080 0004239 9.2590 161.2784 15.62803542 1774

Live tracking and technical data element details for STARLINK-2045 (NORAD 47353). STARLINK-2045 can be tracked NOW for your location showing map with azimuth and elevation plus other details from your city location.

Track the satellite on the map from your city or location and see movement details for azimuth, elevation, latitude, longitude, range, height, and movement on the map or in text.







IsCatalogInMostPopularTable: catalog: 47353, numindb: 15
Update: records affected: 1



GetName: 47353 STARLINK-2045

Hit Count: updated at: Tue, 13 Apr 2021 04:24:08 GMT